Location: Anuling
(14.1239°N, 120.8922°E)
Time: 10:04:19
(UTC+00:00)

Cosmos 2218 Rocket - Visible Passes

Search period start: 10 April 2026 00:00
Search period end: 20 April 2026 00:00
Orbit: 954 x 1006 km, 82.9° (Epoch: 10 April)

Date Brightness Start Highest point End Pass type
(mag) Time Alt. Az. Time Alt. Az. Time Alt. Az.
10 Apr 6.4 12:41:46 10° N 12:41:46 10° N 12:41:49 10° N visible
11 Apr 6.3 13:07:22 15° NNW 13:07:22 15° NNW 13:08:19 10° N visible
12 Apr 5.8 11:48:08 14° NE 11:48:08 14° NE 11:49:08 10° NNE visible
12 Apr 6.5 13:32:48 14° NW 13:32:48 14° NW 13:33:49 10° NNW visible
13 Apr 5.0 12:13:22 33° NNE 12:13:22 33° NNE 12:16:37 10° NNE visible
14 Apr 5.8 10:53:38 10° ENE 10:53:38 10° ENE 10:53:46 10° ENE visible
14 Apr 4.6 12:38:16 50° NW 12:38:16 50° NW 12:43:13 10° N visible
15 Apr 4.8 11:18:00 26° ESE 11:18:48 27° E 11:23:48 10° NE visible
15 Apr 5.8 13:02:33 23° WSW 13:04:00 25° W 13:08:54 10° NNW visible
16 Apr 3.9 11:39:24 10° S 11:45:24 60° E 11:51:24 10° NNE visible
17 Apr 4.3 12:05:59 10° SSW 12:12:04 62° W 12:18:07 10° N visible
18 Apr 4.9 10:48:54 10° SE 10:53:40 24° E 10:58:24 10° NE visible
18 Apr 5.7 12:33:42 10° SW 12:38:49 28° W 12:43:56 10° NNW visible
19 Apr 4.0 11:14:17 10° SSE 11:20:14 53° E 11:26:10 10° NNE visible
19 Apr 6.7 13:03:43 10° W 13:05:41 12° W 13:07:40 10° WNW visible
